2024-168D

Last updated on Sun Oct 20 2024 00:02:04 GMT+0000 (Coordinated Universal Time)

1 61188U 24168D 24293.28401697 .00168783 -23124-6 18052-2 0 9992 2 61188 54.9924 307.0026 5775973 179.8816 180.4852 4.49694721 1353

Satellite not in orbit

2024-168D